When you browse on this site, cookies collect data to enhance your experience and personalize the content and advertising you see.
Visit our Privacy Policy to learn more. By continuing to use the site, you agree to this use of cookies and data.
  • Em Portugal
  • Lista de países
  • Para 7 dias
  • Temperatura da água
  • Mapas de satélite
  • Mapa do tempo
  • Widgets de tempo
  • user-avatar
    Iniciar Sessão

    Previsão horária em Parowa

    Hoje, 21 Janeiro, Segunda-feira

    Tempo Temperatura Precipitação Vento Pressão Humidade
    00:00 -4°C° 0 mm 0 m/s 751 mmHg 65%
    01:00 -4°C° 0 mm 0 m/s 751 mmHg 65%
    02:00 -4°C° 0 mm 0 m/s 751 mmHg 66%
    03:00 -4°C° 0 mm 0 m/s 751 mmHg 66%
    04:00 -5°C° 0 mm 0 m/s 751 mmHg 67%
    05:00 -5°C° 0 mm 0 m/s 751 mmHg 67%
    06:00 -5°C° 0 mm 0 m/s 751 mmHg 67%
    07:00 -5°C° 0 mm 0 m/s 751 mmHg 66%
    08:00 -4°C° 0 mm 0 m/s 751 mmHg 62%
    09:00 -3°C° 0 mm 0 m/s 751 mmHg 58%
    10:00 -3°C° 0 mm 0 m/s 751 mmHg 53%
    11:00 -1°C° 0 mm 1 m/s 751 mmHg 49%
    12:00 0°C° 0 mm 1 m/s 751 mmHg 45%
    13:00 +1°C° 0 mm 1 m/s 750 mmHg 40%
    14:00 +1°C° 0 mm 1 m/s 750 mmHg 43%
    15:00 -1°C° 0 mm 0 m/s 750 mmHg 45%
    16:00 -1°C° 0 mm 0 m/s 750 mmHg 48%
    17:00 -1°C° 0 mm 1 m/s 749 mmHg 50%
    18:00 -1°C° 0 mm 1 m/s 749 mmHg 53%
    19:00 -2°C° 0 mm 1 m/s 749 mmHg 56%
    20:00 -2°C° 0 mm 1 m/s 749 mmHg 57%
    21:00 -2°C° 0 mm 1 m/s 749 mmHg 59%
    22:00 -4°C° 0 mm 2 m/s 748 mmHg 60%
    23:00 -4°C° 0 mm 2 m/s 748 mmHg 60%

    Amanhã, 22 Janeiro, Terça-feira

    Tempo Temperatura Precipitação Vento Pressão Humidade
    00:00 -4°C° 0 mm 2 m/s 748 mmHg 60%
    01:00 -4°C° 0 mm 2 m/s 747 mmHg 59%
    02:00 -4°C° 0 mm 2 m/s 747 mmHg 61%
    03:00 -5°C° 0 mm 2 m/s 747 mmHg 63%
    04:00 -5°C° 0 mm 2 m/s 746 mmHg 65%
    05:00 -5°C° 0 mm 2 m/s 746 mmHg 66%
    06:00 -5°C° 0 mm 2 m/s 746 mmHg 68%
    07:00 -3°C° 0 mm 1 m/s 745 mmHg 69%
    08:00 -3°C° 0 mm 1 m/s 745 mmHg 66%
    09:00 -4°C° 0 mm 2 m/s 745 mmHg 62%
    10:00 -3°C° 0 mm 2 m/s 745 mmHg 59%
    11:00 -2°C° 0 mm 2 m/s 744 mmHg 55%
    12:00 -1°C° 0 mm 2 m/s 744 mmHg 51%
    13:00 +2°C° 0 mm 1 m/s 743 mmHg 47%
    14:00 +1°C° 0 mm 1 m/s 743 mmHg 49%
    15:00 +1°C° 0 mm 1 m/s 742 mmHg 52%
    16:00 0°C° 0 mm 1 m/s 741 mmHg 54%
    17:00 -1°C° 0 mm 1 m/s 741 mmHg 57%
    18:00 -3°C° 0 mm 2 m/s 741 mmHg 60%
    19:00 -4°C° 0 mm 2 m/s 741 mmHg 63%
    20:00 -4°C° 0 mm 2 m/s 740 mmHg 62%
    21:00 -4°C° 0 mm 2 m/s 740 mmHg 62%
    22:00 -2°C° 0 mm 1 m/s 740 mmHg 61%
    23:00 -3°C° 0 mm 1 m/s 740 mmHg 60%

    Depois de amanhã, 23 Janeiro, Quarta-feira

    Tempo Temperatura Precipitação Vento Pressão Humidade
    00:00 -3°C° 0 mm 1 m/s 739 mmHg 60%
    01:00 -3°C° 0 mm 1 m/s 739 mmHg 60%
    02:00 -5°C° 0 mm 2 m/s 739 mmHg 60%
    03:00 -5°C° 0 mm 2 m/s 738 mmHg 61%
    04:00 -5°C° 0 mm 2 m/s 738 mmHg 62%
    05:00 -5°C° 0 mm 2 m/s 738 mmHg 63%
    06:00 -5°C° 0 mm 2 m/s 738 mmHg 65%
    07:00 -7°C° 0 mm 3 m/s 738 mmHg 67%
    08:00 -6°C° 0 mm 3 m/s 738 mmHg 65%
    09:00 -5°C° 0 mm 4 m/s 738 mmHg 63%
    10:00 -5°C° 0 mm 4 m/s 738 mmHg 60%
    11:00 -4°C° 0 mm 4 m/s 738 mmHg 58%
    12:00 -4°C° 0 mm 4 m/s 738 mmHg 55%
    13:00 -4°C° 0 mm 5 m/s 738 mmHg 52%
    14:00 -4°C° 0 mm 5 m/s 738 mmHg 56%
    15:00 -5°C° 0 mm 5 m/s 738 mmHg 60%
    16:00 -4°C° 0 mm 4 m/s 738 mmHg 64%
    17:00 -6°C° 0 mm 5 m/s 738 mmHg 68%
    18:00 -6°C° 0 mm 5 m/s 739 mmHg 72%
    19:00 -7°C° 0 mm 5 m/s 739 mmHg 76%
    20:00 -7°C° 0 mm 5 m/s 740 mmHg 77%
    21:00 -7°C° 0 mm 4 m/s 740 mmHg 78%
    22:00 -7°C° 0 mm 4 m/s 740 mmHg 78%
    23:00 -7°C° 0 mm 4 m/s 741 mmHg 79%

    24 Janeiro, Quinta-feira

    Tempo Temperatura Precipitação Vento Pressão Humidade
    00:00 -8°C° 0 mm 4 m/s 741 mmHg 79%
    01:00 -8°C° 0 mm 4 m/s 741 mmHg 79%
    02:00 -8°C° 0 mm 4 m/s 741 mmHg 79%
    03:00 -8°C° 0 mm 4 m/s 742 mmHg 79%
    04:00 -8°C° 0 mm 4 m/s 742 mmHg 80%
    05:00 -8°C° 0 mm 4 m/s 742 mmHg 80%
    06:00 -9°C° 0 mm 4 m/s 743 mmHg 79%
    07:00 -8°C° 0 mm 3 m/s 743 mmHg 79%
    08:00 -8°C° 0 mm 4 m/s 743 mmHg 76%
    09:00 -8°C° 0 mm 4 m/s 744 mmHg 73%
    10:00 -7°C° 0 mm 4 m/s 744 mmHg 70%
    11:00 -7°C° 0 mm 4 m/s 744 mmHg 67%
    12:00 -5°C° 0 mm 4 m/s 745 mmHg 63%
    13:00 -4°C° 0 mm 4 m/s 745 mmHg 60%
    14:00 -4°C° 0 mm 3 m/s 745 mmHg 61%
    15:00 -5°C° 0 mm 3 m/s 745 mmHg 63%
    16:00 -5°C° 0 mm 3 m/s 745 mmHg 64%
    17:00 -4°C° 0 mm 2 m/s 745 mmHg 67%
    18:00 -5°C° 0 mm 2 m/s 746 mmHg 70%
    19:00 -5°C° 0 mm 2 m/s 746 mmHg 73%
    20:00 -5°C° 0 mm 2 m/s 746 mmHg 75%
    21:00 -4°C° 0 mm 1 m/s 747 mmHg 77%
    22:00 -4°C° 0 mm 1 m/s 747 mmHg 79%
    23:00 -4°C° 0 mm 1 m/s 747 mmHg 80%

    25 Janeiro, Sexta-feira

    Tempo Temperatura Precipitação Vento Pressão Humidade
    00:00 -4°C° 0 mm 1 m/s 747 mmHg 82%
    01:00 -4°C° 0 mm 1 m/s 747 mmHg 83%
    02:00 -4°C° 0 mm 1 m/s 747 mmHg 83%
    03:00 -4°C° 0 mm 1 m/s 747 mmHg 84%
    04:00 -5°C° 0 mm 0 m/s 747 mmHg 84%
    05:00 -4°C° 0 mm 1 m/s 747 mmHg 84%
    06:00 -4°C° 0 mm 1 m/s 748 mmHg 83%
    07:00 -4°C° 0 mm 1 m/s 748 mmHg 83%
    08:00 -4°C° 0 mm 1 m/s 748 mmHg 80%
    09:00 -3°C° 0 mm 1 m/s 748 mmHg 78%
    10:00 -3°C° 0 mm 1 m/s 748 mmHg 76%
    11:00 -3°C° 0 mm 1 m/s 748 mmHg 71%
    12:00 -2°C° 0 mm 1 m/s 748 mmHg 67%
    13:00 -1°C° 0 mm 1 m/s 747 mmHg 62%
    14:00 -1°C° 0 mm 1 m/s 747 mmHg 62%
    15:00 -2°C° 0 mm 1 m/s 747 mmHg 63%
    16:00 -2°C° 0 mm 1 m/s 746 mmHg 63%
    17:00 -2°C° 0 mm 1 m/s 746 mmHg 64%
    18:00 -2°C° 0 mm 1 m/s 746 mmHg 66%
    19:00 -5°C° 0 mm 2 m/s 746 mmHg 68%
    20:00 -5°C° 0 mm 2 m/s 745 mmHg 65%
    21:00 -5°C° 0 mm 3 m/s 745 mmHg 63%
    22:00 -5°C° 0 mm 3 m/s 745 mmHg 60%
    23:00 -5°C° 0 mm 3 m/s 744 mmHg 58%

    26 Janeiro, Sábado

    Tempo Temperatura Precipitação Vento Pressão Humidade
    00:00 -4°C° 0 mm 3 m/s 743 mmHg 57%
    01:00 -4°C° 0 mm 4 m/s 743 mmHg 55%
    02:00 -4°C° 0.2 mm 4 m/s 742 mmHg 63%
    03:00 -4°C° 0.2 mm 5 m/s 741 mmHg 71%
    04:00 -4°C° 0.2 mm 5 m/s 740 mmHg 79%
    05:00 -4°C° 0.3 mm 5 m/s 740 mmHg 82%
    06:00 -2°C° 0.3 mm 5 m/s 740 mmHg 86%
    07:00 -2°C° 0.3 mm 5 m/s 740 mmHg 89%
    08:00 -1°C° 0.1 mm 5 m/s 740 mmHg 90%
    09:00 -1°C° 0.1 mm 5 m/s 740 mmHg 90%
    10:00 0°C° 0.1 mm 4 m/s 740 mmHg 91%
    11:00 0°C° 0 mm 4 m/s 740 mmHg 90%
    12:00 +1°C° 0 mm 3 m/s 740 mmHg 89%
    13:00 +1°C° 0 mm 3 m/s 739 mmHg 88%
    14:00 +2°C° 0 mm 2 m/s 739 mmHg 90%
    15:00 +2°C° 0 mm 2 m/s 739 mmHg 91%
    16:00 +2°C° 0 mm 2 m/s 738 mmHg 92%
    17:00 +2°C° 0 mm 2 m/s 738 mmHg 92%
    18:00 +1°C° 0 mm 2 m/s 738 mmHg 92%
    19:00 +1°C° 0 mm 2 m/s 737 mmHg 92%
    20:00 +1°C° 0.1 mm 2 m/s 737 mmHg 92%
    21:00 +2°C° 0.1 mm 2 m/s 736 mmHg 92%
    22:00 +2°C° 0.1 mm 2 m/s 736 mmHg 92%
    23:00 +1°C° 0 mm 3 m/s 735 mmHg 91%
    Mostrar mais